| time (UTC) | temp F | wind direction | speed MPH | gust MPH | rain 1hr in | rain 24hr in | rain mn in | humidity % | barometer mb |
| 20260906014604 | 66 | 249 | 1.0 | 4.0 | 0.00 | 0.00 | 0.00 | 65 | 1022.5 |
| 20260906013110 | 66 | 201 | 2.0 | 4.0 | 0.00 | 0.00 | 0.00 | 65 | 1022.2 |
| 20260906011608 | 68 | 0 | 0.0 | 0.0 | 0.00 | 0.00 | 0.00 | 64 | 1022.1 |
| 20260906004604 | 0 | 0.0 | 0.0 | 0.00 | 0.00 | 0.00 | 1022.1 | ||
| 20260906003103 | 0 | 0.0 | 0.0 | 0.00 | 0.00 | 0.00 | 1022.2 | ||
| 20260906001604 | 0 | 0.0 | 0.0 | 0.00 | 0.00 | 0.00 | 1022.1 | ||
| 20260906000106 | 70 | 2.0 | 3.0 | 0.00 | 0.00 | 0.00 | 61 | 1021.9 | |
| 20260905234558 | 70 | 328 | 2.0 | 4.0 | 0.00 | 0.00 | 0.00 | 62 | 1021.9 |
| 20260905233056 | 70 | 313 | 2.0 | 3.0 | 0.00 | 0.00 | 0.00 | 65 | 1022.0 |
| 20260905231555 | 71 | 298 | 1.0 | 4.0 | 0.00 | 0.00 | 0.00 | 59 | 1021.7 |
| 20260905230103 | 72 | 311 | 2.0 | 5.0 | 0.00 | 0.00 | 0.00 | 54 | 1021.7 |
| 20260905224556 | 73 | 5.0 | 8.0 | 0.00 | 0.00 | 0.00 | 52 | 1021.7 | |
| 20260905223054 | 0 | 0.0 | 0.0 | 0.00 | 0.00 | 0.00 | 1021.4 | ||
| 20260905221604 | 0 | 0.0 | 0.0 | 0.00 | 0.00 | 0.00 | 1021.1 | ||
| 20260905214600 | 0 | 0.0 | 0.0 | 0.00 | 0.00 | 0.00 | 1021.0 | ||
| 20260905213134 | 0 | 0.0 | 0.0 | 0.00 | 0.00 | 0.00 | 1020.9 | ||
| 20260905211559 | 0 | 0.0 | 0.0 | 0.00 | 0.00 | 0.00 | 1020.6 | ||
| 20260905204555 | 0 | 0.0 | 0.0 | 0.00 | 0.00 | 0.00 | 1020.2 | ||
| 20260905203055 | 0 | 0.0 | 0.0 | 0.00 | 0.00 | 0.00 | 1020.1 | ||
| 20260905201556 | 0 | 0.0 | 0.0 | 0.00 | 0.00 | 0.00 | 1019.9 | ||
| 20260905200056 | 0 | 0.0 | 0.0 | 0.00 | 0.00 | 0.00 | 1019.7 | ||
| 20260905194609 | 0 | 0.0 | 0.0 | 0.00 | 0.00 | 0.00 | 1019.6 | ||
| 20260905193055 | 0 | 0.0 | 0.0 | 0.00 | 0.00 | 0.00 | 1019.3 | ||
| 20260905191608 | 0 | 0.0 | 0.0 | 0.00 | 0.00 | 0.00 | 1019.1 | ||
| 20260905190052 | 0 | 0.0 | 0.0 | 0.00 | 0.00 | 0.00 | 1018.8 | ||
| 20260905184621 | 0 | 0.0 | 0.0 | 0.00 | 0.00 | 0.00 | 1018.8 | ||
| 20260905183058 | 0 | 0.0 | 0.0 | 0.00 | 0.00 | 0.00 | 1018.6 | ||
| 20260905181607 | 0 | 0.0 | 0.0 | 0.00 | 0.00 | 0.00 | 1018.4 | ||
| 20260905180105 | 0 | 0.0 | 0.0 | 0.00 | 0.00 | 0.00 | 1018.2 | ||
| 20260905174558 | 0 | 0.0 | 0.0 | 0.00 | 0.00 | 0.00 | 1017.8 | ||
| 20260905173116 | 82 | 14.0 | 21.0 | 0.00 | 0.00 | 0.00 | 42 | 1017.5 | |
| 20260905171621 | 82 | 348 | 14.0 | 23.0 | 0.00 | 0.00 | 0.00 | 41 | 1017.4 |
| 20260905170106 | 83 | 338 | 13.0 | 21.0 | 0.00 | 0.00 | 0.00 | 41 | 1017.2 |
| 20260905164559 | 85 | 346 | 13.0 | 20.0 | 0.00 | 0.00 | 0.00 | 38 | 1017.0 |
| 20260905163113 | 0 | 0.0 | 0.0 | 0.00 | 0.00 | 0.00 | 1016.6 | ||
| 20260905161602 | 86 | 333 | 15.0 | 20.0 | 0.00 | 0.00 | 0.00 | 39 | 1016.6 |
| 20260905160107 | 87 | 355 | 14.0 | 23.0 | 0.00 | 0.00 | 0.00 | 41 | 1016.2 |
| 20260905154613 | 88 | 338 | 15.0 | 23.0 | 0.00 | 0.00 | 0.00 | 41 | 1016.1 |
| 20260905153109 | 87 | 331 | 14.0 | 25.0 | 0.00 | 0.00 | 0.00 | 43 | 1016.0 |
| 20260905151613 | 88 | 5 | 13.0 | 25.0 | 0.00 | 0.00 | 0.00 | 42 | 1015.7 |
| 20260905150058 | 89 | 328 | 18.0 | 27.0 | 0.00 | 0.00 | 0.00 | 42 | 1015.5 |
| 20260905144554 | 90 | 325 | 16.0 | 27.0 | 0.00 | 0.00 | 0.00 | 43 | 1015.4 |
| 20260905143104 | 91 | 323 | 16.0 | 25.0 | 0.00 | 0.00 | 0.00 | 43 | 1015.3 |
| 20260905141603 | 92 | 355 | 19.0 | 29.0 | 0.00 | 0.00 | 0.00 | 41 | 1015.2 |
| 20260905140059 | 93 | 298 | 16.0 | 26.0 | 0.00 | 0.00 | 0.00 | 39 | 1014.9 |
| 20260905134553 | 95 | 284 | 9.0 | 19.0 | 0.00 | 0.00 | 0.00 | 35 | 1014.9 |
| 20260905133104 | 95 | 318 | 8.0 | 18.0 | 0.00 | 0.00 | 0.00 | 37 | 1014.9 |
| 20260905131606 | 95 | 331 | 9.0 | 18.0 | 0.00 | 0.00 | 0.00 | 37 | 1014.6 |
| 20260905130057 | 95 | 302 | 11.0 | 16.0 | 0.00 | 0.00 | 0.00 | 37 | 1014.7 |
| 20260905124605 | 96 | 252 | 6.0 | 13.0 | 0.00 | 0.00 | 0.00 | 36 | 1014.7 |
| 20260905123104 | 96 | 350 | 5.0 | 13.0 | 0.00 | 0.00 | 0.00 | 35 | 1014.9 |
| 20260905121601 | 95 | 292 | 8.0 | 16.0 | 0.00 | 0.00 | 0.00 | 34 | 1015.1 |
| 20260905120105 | 96 | 296 | 6.0 | 14.0 | 0.00 | 0.00 | 0.00 | 33 | 1015.2 |
| 20260905114606 | 96 | 282 | 8.0 | 19.0 | 0.00 | 0.00 | 0.00 | 33 | 1015.2 |
| 20260905113101 | 94 | 315 | 4.0 | 11.0 | 0.00 | 0.00 | 0.00 | 34 | 1015.4 |
| 20260905111646 | 95 | 300 | 5.0 | 11.0 | 0.00 | 0.00 | 0.00 | 35 | 1015.5 |
| 20260905110100 | 95 | 277 | 5.0 | 10.0 | 0.00 | 0.00 | 0.00 | 35 | 1015.4 |
| 20260905104604 | 95 | 287 | 3.0 | 11.0 | 0.00 | 0.00 | 0.00 | 34 | 1015.6 |
| 20260905103102 | 94 | 163 | 4.0 | 11.0 | 0.00 | 0.00 | 0.00 | 33 | 1015.7 |
| 20260905101607 | 93 | 267 | 2.0 | 12.0 | 0.00 | 0.00 | 0.00 | 33 | 1015.6 |
| 20260905100106 | 93 | 263 | 5.0 | 14.0 | 0.00 | 0.00 | 0.00 | 33 | 1015.7 |
| 20260905094555 | 93 | 289 | 6.0 | 11.0 | 0.00 | 0.00 | 0.00 | 34 | 1015.8 |
| 20260905093101 | 92 | 327 | 4.0 | 11.0 | 0.00 | 0.00 | 0.00 | 1015.8 | |
| 20260905091604 | 91 | 240 | 4.0 | 8.0 | 0.00 | 0.00 | 0.00 | 1015.8 | |
| 20260905084603 | 89 | 307 | 5.0 | 10.0 | 0.00 | 0.00 | 0.00 | 39 | 1015.8 |
| 20260905083100 | 89 | 292 | 4.0 | 10.0 | 0.00 | 0.00 | 0.00 | 40 | 1015.8 |
| 20260905081601 | 88 | 290 | 4.0 | 8.0 | 0.00 | 0.00 | 0.00 | 1015.8 | |
| 20260905080100 | 86 | 3.0 | 8.0 | 0.00 | 0.00 | 0.00 | 42 | 1015.8 | |
| 20260905074552 | 85 | 241 | 2.0 | 5.0 | 0.00 | 0.00 | 0.00 | 44 | 1015.6 |
| 20260905073102 | 82 | 0 | 1.0 | 5.0 | 0.00 | 0.00 | 0.00 | 47 | 1015.6 |
| 20260905071557 | 80 | 218 | 2.0 | 6.0 | 0.00 | 0.00 | 0.00 | 51 | 1015.7 |
| 20260905070104 | 78 | 200 | 3.0 | 7.0 | 0.00 | 0.00 | 0.00 | 53 | 1015.6 |
| 20260905064606 | 76 | 228 | 2.0 | 6.0 | 0.00 | 0.00 | 0.00 | 56 | 1015.5 |
| 20260905063100 | 74 | 211 | 3.0 | 6.0 | 0.00 | 0.00 | 0.00 | 59 | 1015.5 |
| 20260905061601 | 72 | 179 | 3.0 | 7.0 | 0.00 | 0.00 | 0.00 | 61 | 1015.4 |
| 20260905060054 | 70 | 195 | 3.0 | 6.0 | 0.00 | 0.00 | 0.00 | 65 | 1015.5 |
| 20260905054603 | 68 | 196 | 2.0 | 5.0 | 0.00 | 0.00 | 0.00 | 68 | 1015.5 |
| 20260905053109 | 66 | 0 | 0.0 | 0.0 | 0.00 | 0.00 | 0.00 | 74 | 1015.4 |
| 20260905051557 | 65 | 0 | 0.0 | 0.0 | 0.00 | 0.00 | 0.00 | 73 | 1015.5 |
| 20260905050053 | 64 | 0 | 0.0 | 3.0 | 0.00 | 0.00 | 0.00 | 73 | 1015.5 |
| 20260905044552 | 62 | 316 | 1.0 | 3.0 | 0.00 | 0.00 | 0.00 | 75 | 1015.5 |
| 20260905043101 | 61 | 316 | 1.0 | 2.0 | 0.00 | 0.00 | 0.00 | 77 | 1015.5 |
| 20260905041600 | 60 | 316 | 1.0 | 3.0 | 0.00 | 0.00 | 0.00 | 78 | 1015.3 |
| 20260905040107 | 60 | 313 | 3.0 | 7.0 | 0.00 | 0.00 | 0.00 | 78 | 1015.2 |
| 20260905034611 | 60 | 304 | 0.0 | 2.0 | 0.00 | 0.00 | 0.00 | 78 | 1015.1 |
| 20260905033117 | 60 | 0 | 0.0 | 0.0 | 0.00 | 0.00 | 0.00 | 78 | 1015.2 |
| 20260905031613 | 61 | 0 | 0.0 | 0.0 | 0.00 | 0.00 | 0.00 | 77 | 1015.2 |
| 20260905030104 | 60 | 0 | 0.0 | 0.0 | 0.00 | 0.00 | 0.00 | 77 | 1015.3 |
| 20260905024555 | 60 | 0 | 0.0 | 0.0 | 0.00 | 0.00 | 0.00 | 76 | 1015.3 |
| 20260905023126 | 62 | 0 | 0.0 | 0.0 | 0.00 | 0.00 | 0.00 | 75 | 1015.4 |
| 20260905021601 | 63 | 0 | 0.0 | 0.0 | 0.00 | 0.00 | 0.00 | 74 | 1015.4 |
| 20260905020058 | 63 | 0 | 0.0 | 0.0 | 0.00 | 0.00 | 0.00 | 75 | 1015.4 |